SL-8 R/B (21938 NORAD) Tracking and Keplerian Element Data

This shows tracking and keplerian element data for the satellite.

Feedback or suggestion? Click here.




ElementValue
Catalog21938
NameSL-8 R/B
Epoch Orbit31736
Epoch Day198.77144203
Epoch Year2018
RAAN66.7837
Inclination82.9288
Eccentricity0.0029441
Argument of Perigee165.9925
Mean Anonmoly263.1607
Mean Motion13.75260062
Decay Rate-7E-08
L11 21938U 92020B 18198.77144203 -.00000007 00000-0 -23577-4 0 9998
L22 21938 82.9288 66.7837 0029441 165.9925 263.1607 13.75260062317363

Live tracking and technical data element details for SL-8 R/B (NORAD 21938). SL-8 R/B can be tracked NOW for your location showing map with azimuth and elevation plus other details from your city location.

Track the satellite on the map from your city or location and see movement details for azimuth, elevation, latitude, longitude, range, height, and movement on the map or in text.







IsCatalogInMostPopularTable: catalog: 21938, numindb: 21
Update: records affected: 1



GetName: 21938 SL-8 R/B

Hit Count: updated at: Thu, 19 Jul 2018 21:09:35 GMT